This is the latest recevied weather packets stored in our database for station/object XE2OR-10. If no packets are shown the sender has not sent any weather packets the latest 10 day(s).
| Time | Temp. | Humidity | Pressure | Rain* | Wind** | Luminosity | Snow |
|---|---|---|---|---|---|---|---|
| 1777682029 | 21.11° C | 81% | 1017.1 hPa | 0 mm | - | 39 W/m² | - |
| 1777681729 | 21.11° C | 81% | 1017 hPa | 0 mm | - | 33 W/m² | - |
| 1777681433 | 21.11° C | 81% | 1016.7 hPa | 0 mm | - | 32 W/m² | - |
| 1777681129 | 21.11° C | 81% | 1016.7 hPa | 0 mm | - | 33 W/m² | - |
| 1777680833 | 21.11° C | 81% | 1016.8 hPa | 0 mm | - | 35 W/m² | - |
| 1777680529 | 21.11° C | 81% | 1016.7 hPa | 0 mm | - | 38 W/m² | - |
| 1777680229 | 21.67° C | 81% | 1016.6 hPa | 0 mm | - | 83 W/m² | - |
| 1777679929 | 21.67° C | 81% | 1016.6 hPa | 0 mm | - | 77 W/m² | - |
| 1777679633 | 21.67° C | 81% | 1016.6 hPa | 0 mm | - | 135 W/m² | - |
| 1777679329 | 21.11° C | 81% | 1016.4 hPa | 0 mm | - | 84 W/m² | - |
| 1777679032 | 21.67° C | 81% | 1016.6 hPa | 0 mm | - | 55 W/m² | - |
| 1777678728 | 21.67° C | 81% | 1016.3 hPa | 0 mm | - | 74 W/m² | - |
| 1777678429 | 22.22° C | 79% | 1016.5 hPa | 0 mm | - | 90 W/m² | - |
| 1777678129 | 22.22° C | 80% | 1016.4 hPa | 0 mm | - | 77 W/m² | - |
| 1777677832 | 22.22° C | 80% | 1016.2 hPa | 0 mm | - | 70 W/m² | - |
| 1777677530 | 22.22° C | 80% | 1016.1 hPa | 0 mm | - | 87 W/m² | - |
| 1777677232 | 22.22° C | 80% | 1016.1 hPa | 0 mm | - | 92 W/m² | - |
| 1777676929 | 21.67° C | 80% | 1015.8 hPa | 0 mm | - | 85 W/m² | - |
| 1777676630 | 21.67° C | 81% | 1015.9 hPa | 0 mm | - | 71 W/m² | - |
| 1777676329 | 21.67° C | 80% | 1015.9 hPa | 0 mm | - | 66 W/m² | - |
| 1777676033 | 22.22° C | 81% | 1015.8 hPa | 0 mm | - | 62 W/m² | - |
| 1777675729 | 21.67° C | 80% | 1015.6 hPa | 0 mm | - | 66 W/m² | - |
| 1777675433 | 21.67° C | 81% | 1015.6 hPa | 0 mm | - | 46 W/m² | - |
| 1777675129 | 22.22° C | 80% | 1015.7 hPa | 0 mm | - | 44 W/m² | - |
| 1777674829 | 22.22° C | 80% | 1015.7 hPa | 0 mm | - | 67 W/m² | - |
* Rain latest hour (hover to see other rain measurements)
** Current wind speed in m/s (hover to see current wind gust speed)